Terminal Aerodrome Forecast
Issued by NWS

Home | Current Version | Previous Version | Text Only | Print | Product List | Glossary On
Versions: 1 2 3 4 5 6 7 8 9 10 11 12 13 14 15 16 17 18 19 20 21 22 23 24 25 26 27 28 29 30 31 32 33 34
000
FTUS43 KGLD 272340
TAFMCK
TAF
KMCK 272340Z 2800/2824 10010KT 6SM -TSRA SCT040CB BKN090
      TEMPO 2801/2805 VRB25G35KT 3SM TSRA BR BKN035CB
     FM280600 14008KT P6SM SCT020
     FM280900 11008KT 5SM BR BKN015
     FM281400 14010KT P6SM BKN025
     FM282200 15012KT P6SM SCT040=

USA.gov is the U.S. government's official web portal to all federal, state and local government web resources and services.